Location: East Guldeford
(50.9500°N, 0.7500°E)
Time: 08:12:35
(UTC+00:00)

Thor Agena Rocket - Pass Details

Date: 12 May 2021
Orbit: 760 x 807 km, 99.0° (Epoch: 16 June)

Event Time Altitude Azimuth Distance (km) Brightness Sun altitude
Rises 23:32:57 0° 18° (NNE) 3,305 8.0 -20.5°
Reaches altitude 10° 23:35:20 10° 23° (NNE) 2,378 6.9 -20.6°
Maximum altitude 23:40:30 55° 101° (E) 963 3.9 -20.6°
Enters shadow 23:42:03 40° 153° (SSE) 1,168 4.0 -20.6°
